Simultaneous Nadir Overpasses (SNOs) Predictions

Prediction of SNOs between GOES-14 and AQUA Satellite Orbit:

Table of predicted SNOs for the next 14.0 days since TLE Epoch: 7/15/2023
Index Date Time (GOES-14) GOES-14 Lat,Lon AQUA Lat,Lon Distance(km) Time Diff (sec)
1 07/15/2023 08:49:55 -0.25,-108.66 -1.13,-104.58 464.10 80
2 07/15/2023 21:08:08 0.28,-108.56 0.07,-109.64 122.56 80
3 07/17/2023 20:56:33 0.28,-108.55 0.76,-106.16 271.92 80
4 07/18/2023 09:14:36 -0.30,-108.65 0.27,-111.18 288.49 80
5 07/20/2023 09:03:03 -0.30,-108.65 -0.53,-107.72 106.49 80
6 07/20/2023 21:21:14 0.33,-108.54 -0.58,-112.77 480.78 80
7 07/22/2023 21:06:58 0.32,-108.54 0.14,-109.28 85.12 80
8 07/24/2023 20:55:22 0.32,-108.54 0.89,-105.80 310.67 80
9 07/25/2023 09:13:26 -0.34,-108.65 0.12,-110.84 248.84 80
10 07/27/2023 09:01:49 -0.34,-108.64 -0.60,-107.35 146.55 80
11 07/27/2023 21:20:01 0.37,-108.53 -0.47,-112.40 441.17 80
